Hourly Data Report for September 18, 2010

IQALUIT CLIMATE
NUNAVUT

63°44'50.000" N
68°32'40.000" W
33.50 m
2402592
71321
XFB

Download Data

Hourly Data (September 2010)
Hourly Data Report for September 18, 2010
TIME
LST
Temp Definition
°C
Dew Point Definition
°C
Rel Hum Definition
%
Precip. Amount Definition
mm

Wind Dir Definition
10's deg

Wind Spd Definition
km/h
Visibility Definition
km
Stn Press Definition
kPa
Hmdx Definition


Wind Chill Definition


Weather Definition


00:00 4.0 4.0 100   15 4   101.27     LegendNANA
01:00 4.2 4.0 99   15 6   101.26     LegendNANA
02:00 3.9 3.9 100   15 6   101.24     LegendNANA
03:00 3.9 3.9 100   15 6   101.23     LegendNANA
04:00 3.6 3.6 100   13 7   101.24     LegendNANA
05:00 3.7 3.7 100   15 7   101.26     LegendNANA
06:00 3.4 3.4 100   15 7   101.25     LegendNANA
07:00 3.4 3.4 100   16 7   101.25     LegendNANA
08:00 3.8 3.8 100   15 13   101.23     LegendNANA
09:00 3.7 3.7 100   15 19   101.21     LegendNANA
10:00 3.9 3.6 98   16 19   101.18     LegendNANA
11:00 4.5 4.1 97   15 19   101.15     LegendNANA
12:00 4.2 3.4 95   16 19   101.12     LegendNANA
13:00 4.2 3.7 97   15 24   101.14     LegendNANA
14:00 4.4 3.9 97   15 19   101.08     LegendNANA
15:00 4.8 4.0 95   16 17   101.03     LegendNANA
16:00 4.2 4.2 100   15 22   101.02     LegendNANA
17:00 4.7 4.3 97   15 22   100.99     LegendNANA
18:00 4.5 4.5 100   14 13   100.96     LegendNANA
19:00 4.0 4.0 100   14 17   100.90     LegendNANA
20:00 3.7 3.7 100   14 11   100.87     LegendNANA
21:00 3.6 3.6 100   13 9   100.81     LegendNANA
22:00 3.5 3.5 100   15 6   100.74     LegendNANA
23:00 3.5 3.5 100   12 6   100.66     LegendNANA

Notes on Data Quality.

Legend

  • E = Estimated
  • M = Missing
  • NA = Not Available*
  • [empty] = Indicates an unobserved value
Date modified: